User: anonymous   Login
Location: Unspecified
(0.0000°N, 0.0000°E)
Time: 08:59:47
(UTC+02:00)
Language:

Atlas Centaur 2 - Orbit

View from above orbital plane
View from above orbital plane
View from above satellite
View from above satellite

Ground track
Ground track

The orbit data is extracted from the following two-line orbital elements,

1 00694U 63047A   15184.36314604  .00000987  00000-0  11676-3 0  9993
2 00694 030.3587 135.1438 0592034 313.7443 189.3295 14.01047885582347
Epoch (UTC): 03 July 2015 08:42:55
Eccentricity: 0.0592034
inclination: 30.3587°
perigee height: 460 km
apogee height: 1320 km
right ascension of ascending node: 135.1438°
argument of perigee: 313.7443°
revolutions per day: 14.01047885
mean anomaly at epoch: 189.3295°
orbit number at epoch: 58234

The dashed part of the orbit path shows where the satellite is in the earth's shadow,  

DLR